Regional Weather Roundup
Issued by NWS Albany, NY

Home | Current Version | Previous Version | Text Only | Print | Product List | Glossary On
Versions: 1 2 3 4 5 6 7 8 9 10 11 12 13 14 15 16 17 18 19 20 21 22 23 24 25 26 27
000
ASUS41 KALY 312110
RWRALY

NEW YORK STATE HOURLY WEATHER ROUNDUP
NATIONAL WEATHER SERVICE ALBANY NY
500 PM EDT TUE MAY 31 2016

NOTE: "FAIR" INDICATES FEW OR NO CLOUDS BELOW 12,000 FEET WITH NO
SIGNIFICANT WEATHER AND/OR NO OBSTRUCTIONS TO VISIBILITY.

NYZ032-033-038>043-046>054-057>066-NYZ062>081-082-084-312200-
EAST


CITY           SKY/WX    TMP DP  RH WIND       PRES   REMARKS
ALBANY         MOSUNNY   82  49  31 NW21G26   29.91F
GLENS FALLS    SUNNY     84  44  24 W12G20    29.88S
POUGHKEEPSIE   SUNNY     86  54  33 SE5       29.88F
NEWBURGH       MOSUNNY   82  55  39 SW8       29.92F
MONTGOMERY     PTSUNNY   86  58  38 VRB7      29.90F
WHITE PLAINS   MOSUNNY   84  55  36 NW8       29.92S
ISLIP          MOSUNNY   74  66  76 S10       29.93S
NEW YORK CITY  MOSUNNY   82  64  54 S13       29.91F
CENTRAL PARK   SUNNY     80  59  48 VRB3      29.94S
$$

NYZ005>009-017-018-044>046-055-056-312200-
CENTRAL


CITY           SKY/WX    TMP DP  RH WIND       PRES   REMARKS
FULTON         SUNNY     80  47  31 W15       29.98S
SYRACUSE       PTSUNNY   78  45  30 NW16G22   29.96S
ROME           SUNNY     79  42  26 W15G22    29.97R
ELMIRA         MOSUNNY   83  54  36 N12       29.95S
BINGHAMTON     SUNNY     78  54  43 N13G20    29.99S
MONTICELLO     MOSUNNY   81  54  39 W12G20    29.98F
$$

NYZ026>034-041>043-087-312200-
NORTH


CITY           SKY/WX    TMP DP  RH WIND       PRES   REMARKS
WATERTOWN      SUNNY     74  51  44 SW14G24   29.94F
FORT DRUM      NOT AVBL
MASSENA        PTSUNNY   76  51  41 NW14G21   29.92R
SARANAC LAKE   PTSUNNY   73  45  36 W12G23    29.93R
PLATTSBURGH    PTSUNNY   80  51  36 NW8       29.87R
$$

NYZ001>004-010>016-019>021-085-312200-
WEST


CITY           SKY/WX    TMP DP  RH WIND       PRES   REMARKS
NIAGARA FALLS  CLOUDY    81  44  27 N13       29.99S
BUFFALO        PTSUNNY   79  47  32 SW12      30.00R
DUNKIRK        CLOUDY    81  46  29 W7        30.01S
JAMESTOWN      MOSUNNY   73  43  33 NW10      30.05S
WELLSVILLE     MOSUNNY   76  54  46 NW8       30.05S
ROCHESTER      PTSUNNY   81  47  30 NW10      29.98S
PENN YAN       CLOUDY    80  51  36 VRB7      29.99S
$$

             KEY
       WCI = WIND CHILL INDEX
       VSB = VISIBILITY
       HX  = HEAT INDEX
$$




USA.gov is the U.S. government's official web portal to all federal, state and local government web resources and services.